Temperature
18 18 18 18 18 18 18 18 18 18 18 18 18 18 18 18 18 18 18 18 18 18 18 18 18 18 18 18 18 18 18 18 18 18 18 18 18 18 18 18 18 18 18
18 18 18 18 18 18 18 18 18 18 18 18 18 18 18 18 18 18 18 18 18 18 18 18 18 18 18 18 18 18 18 18 18 18 18 18 18 18 18 18 18 18 18
18 18 18 18 18 18 18 18 18 18 18 18 18 18 18 18 18 18 18 18 18 18 18 18 18 18 18 18 18 18 18 18 18 18 18 18 17 17 17 17 17 17 17
18 18 18 18 18 18 18 18 18 18 18 18 18 18 18 18 18 18 18 18 18 18 18 18 18 18 18 18 18 18 18 18 18 18 17 17 17 17 17 17 17 17 17
18 18 18 18 18 18 18 18 18 18 18 18 18 18 18 18 18 18 18 18 18 18 18 18 18 17 17 17 17 17 17 17 17 17 17 17 17 17 17 17 17 17 17
18 18 18 18 18 18 18 18 18 18 18 18 18 18 17 18 18 17 17 18 18 18 17 17 17 17 17 17 17 17 17 17 17 17 17 17 17 17 17 17 17 17 17
18 18 18 18 18 18 18 18 17 17 17 17 17 17 17 17 17 17 17 17 17 17 17 17 17 17 17 17 17 17 17 17 17 17 17 17 17 17 17 17 17 17 17
19 18 18 18 18 18 18 18 17 17 17 17 17 17 17 17 17 17 17 17 17 17 17 17 17 17 17 17 17 17 17 17 17 17 17 16 16 16 16 17 16 16 16
19 18 18 18 18 18 18 18 17 17 17 17 17 17 17 17 17 17 17 17 17 17 17 17 17 17 16 16 16 16 16 17 17 17 16 16 16 16 16 16 16 16 16
18 18 18 18 18 18 18 17 17 17 17 17 17 17 17 17 17 17 17 17 17 17 17 17 16 16 16 16 16 16 16 16 16 16 16 16 16 16 16 16 16 16 16
18 18 18 18 18 18 18 18 17 17 17 17 17 17 17 17 17 17 17 17 17 17 17 16 16 16 16 16 16 16 16 16 16 16 16 15 15 16 16 16 16 16 15
18 18 18 18 18 18 18 18 17 17 17 17 17 17 17 17 17 17 17 17 17 17 16 16 16 16 16 16 16 16 16 16 16 16 15 15 15 15 15 15 15 15 15
19 18 18 18 18 18 18 18 17 17 17 17 17 17 17 17 17 17 17 17 16 16 16 16 16 16 16 16 16 16 16 16 16 16 15 15 15 15 15 15 15 15 15
19 18 18 18 18 18 18 18 17 17 17 17 17 17 17 17 17 17 17 16 16 16 16 16 16 16 16 16 16 16 16 16 16 15 15 15 15 15 15 15 15 15 15
19 18 18 18 18 18 18 18 17 17 17 17 17 17 17 17 17 17 16 16 16 16 16 16 16 16 16 16 16 15 15 15 15 15 15 15 15 15 15 15 15 15 15
19 18 18 18 18 18 18 18 17 17 17 17 17 17 17 17 17 17 16 16 16 16 16 16 16 16 16 16 15 15 15 15 15 15 15 15 15 15 15 15 15 15 15
19 19 18 18 18 18 18 18 17 17 17 17 17 17 16 16 16 16 16 16 16 16 16 16 16 15 15 15 15 15 15 15 15 15 15 15 15 15 15 15 14 14 14
19 19 18 18 18 18 18 17 17 17 17 17 17 16 16 16 16 16 16 16 16 16 16 16 16 15 15 15 15 15 15 15 15 15 15 15 15 15 15 14 14 14 14
18 18 18 18 18 18 17 17 17 17 17 17 17 17 16 16 16 16 16 16 16 16 16 16 16 15 15 15 15 15 15 15 15 15 15 14 14 14 14 14 14 14 14
18 18 18 18 18 18 17 17 17 17 17 17 17 17 16 16 16 16 16 16 16 16 16 16 15 15 15 15 15 15 15 14 14 14 14 14 14 14 14 14 14 14 14
18 18 18 18 18 17 17 17 17 17 16 16 16 16 16 16 16 16 16 16 16 16 16 15 15 15 15 15 15 15 14 14 14 14 14 14 14 14 14 14 14 14 14
18 18 17 17 17 17 17 17 17 16 16 16 16 16 16 16 16 16 16 16 16 16 15 15 15 15 15 15 15 15 14 14 14 14 14 14 14 14 13 13 13 13 13
18 17 17 17 17 17 17 17 16 16 16 16 16 16 16 16 16 16 16 16 16 15 15 15 15 15 15 15 15 15 14 14 14 14 14 14 13 13 13 13 13 13 13
17 17 17 17 17 17 17 17 16 16 16 16 16 16 16 16 16 16 16 15 15 15 15 15 15 15 15 15 15 15 14 14 14 13 13 13 13 13 13 13 13 13 13
17 17 17 17 17 17 16 16 16 16 16 16 16 16 16 15 15 15 15 15 15 15 15 15 15 15 15 15 15 14 14 14 14 13 13 13 13 13 13 13 13 13 13
17 17 16 16 16 16 16 16 16 16 16 16 15 15 15 15 15 15 15 15 15 15 15 15 15 15 15 14 14 14 14 14 14 14 13 13 13 13 13 13 13 13 13
Wind_Speed
0 1 6 8 9 10 10 11 11 12 12 12 13 13 13 13 13 13 13 13 13 12 11 11 11 11 10 10 10 10 10 10 10 10 9 9 9 8 8 8 8 7 8
3 3 7 8 9 10 10 11 12 12 12 12 13 13 13 12 13 13 13 14 13 13 12 12 12 11 10 10 10 10 10 9 9 10 9 8 8 8 8 8 8 7 8
5 5 7 8 9 10 10 11 12 11 12 12 13 13 13 13 14 14 13 14 13 14 13 13 12 11 11 10 10 10 10 10 9 9 8 6 6 7 8 8 8 8 7
7 6 7 9 9 10 10 10 11 11 11 12 13 13 14 14 14 13 13 13 13 13 13 12 12 11 11 10 10 10 10 10 9 8 6 6 5 7 7 7 7 7 7
6 6 8 9 9 9 10 10 10 10 11 12 13 13 13 13 13 13 12 12 12 12 12 12 11 11 11 10 10 10 10 10 9 8 7 6 5 7 7 7 7 7 7
6 6 8 10 10 9 9 9 10 10 11 11 12 12 12 12 12 12 12 12 12 12 11 11 11 11 11 10 10 10 11 11 10 8 7 6 6 7 8 8 8 8 7
6 6 8 10 9 9 9 9 9 10 10 11 12 12 12 12 11 11 11 11 11 11 11 11 11 11 11 11 11 12 12 11 9 8 7 7 7 8 8 8 8 8 8
7 6 8 10 9 9 9 9 9 9 10 10 11 11 11 12 11 10 10 10 10 10 10 10 10 11 11 11 11 11 11 11 9 8 7 6 8 8 8 8 8 7 7
7 7 6 7 8 8 9 9 9 9 10 10 10 10 11 10 10 10 9 9 9 9 9 9 9 10 10 11 11 11 12 12 9 7 7 6 7 8 8 8 8 7 7
5 5 5 6 6 6 6 7 8 8 9 9 9 9 9 8 8 8 8 8 8 8 8 8 8 9 10 11 11 11 11 11 9 8 6 8 9 9 9 9 8 8 7
5 4 4 4 4 5 5 6 6 7 7 8 8 8 7 5 5 6 6 7 7 8 7 8 9 9 10 11 12 12 10 8 8 7 7 9 10 10 10 10 9 9 9
6 5 4 4 4 4 4 5 4 4 5 6 6 6 5 4 4 5 5 6 6 7 7 8 8 8 9 8 10 10 8 8 7 6 8 10 11 11 11 10 10 10 10
6 6 6 5 5 4 3 4 3 3 4 4 5 6 5 4 4 4 4 5 5 6 6 7 7 7 7 7 7 7 7 7 7 7 8 10 10 10 10 11 11 10 10
5 5 6 6 5 4 4 3 3 3 3 3 4 6 5 3 3 3 2 3 3 3 4 4 4 6 7 7 7 6 7 7 6 6 7 9 10 10 10 10 11 10 10
4 4 5 5 5 4 4 3 3 2 3 4 4 5 6 4 2 2 2 2 2 3 3 3 3 4 5 5 6 6 6 7 7 7 7 9 10 10 10 10 9 9 10
4 4 4 4 4 5 4 3 3 3 3 4 4 5 5 5 3 2 2 2 2 3 3 3 3 3 3 4 4 5 5 6 6 6 6 7 8 9 9 9 8 8 8
4 4 4 5 4 4 4 4 4 3 4 4 3 4 5 5 5 3 2 1 2 3 4 4 4 4 3 3 3 3 4 4 5 5 6 6 6 7 8 8 8 7 7
4 4 4 5 4 4 3 3 3 4 5 4 4 4 5 5 6 4 2 1 2 4 3 2 2 3 3 3 2 2 2 3 3 4 5 5 5 5 6 6 7 7 7
5 5 4 5 4 3 3 3 3 3 4 4 4 4 4 5 6 4 2 1 3 3 2 2 2 3 2 2 2 2 2 2 2 3 3 3 4 4 4 4 5 5 6
4 5 4 4 4 4 3 3 3 3 2 3 3 3 4 4 5 5 3 2 3 2 2 2 2 2 2 2 2 3 2 1 2 2 1 2 2 3 3 3 3 4 4
4 4 3 3 3 3 2 2 2 1 1 1 2 3 3 4 5 5 3 2 2 2 2 2 2 3 2 2 3 3 4 4 3 1 2 2 1 1 2 3 2 2 2
4 3 3 3 3 3 2 2 2 2 1 1 1 2 3 3 4 4 3 2 2 3 3 3 2 2 2 2 3 3 2 3 3 2 2 1 1 1 1 1 2 2 2
4 4 4 4 4 3 3 3 3 2 2 2 1 1 1 2 3 3 3 3 2 3 3 2 2 3 2 1 2 3 3 2 1 3 2 1 1 1 0 0 1 2 3
5 4 4 4 4 3 4 4 4 3 1 1 1 1 0 2 2 3 3 3 3 2 2 2 2 2 3 1 1 1 2 3 2 1 2 2 1 1 1 1 1 1 2
4 4 3 3 3 3 4 5 4 2 1 0 1 1 0 0 1 2 2 3 2 2 3 2 2 2 2 2 1 1 2 2 2 2 1 2 2 2 1 1 0 1 2
3 3 3 3 2 2 3 4 4 3 2 2 1 1 0 1 1 1 2 2 2 2 2 2 2 3 2 2 2 2 2 2 1 2 2 1 1 2 2 1 0 1 2
Wind_Direction
299 106 95 88 89 87 86 81 78 77 75 72 74 79 81 85 89 90 89 86 84 84 88 91 92 91 93 93 94 92 91 90 88 91 98 99 97 97 97 97 95 96 104
157 114 99 94 91 88 87 85 83 80 78 75 75 77 80 87 91 90 87 83 80 79 84 91 92 89 90 90 91 92 91 86 83 84 83 86 91 93 96 100 99 103 103
127 113 100 98 95 91 89 88 86 83 81 79 78 78 80 86 89 89 86 83 80 79 82 87 88 87 86 86 86 88 88 85 81 79 76 76 83 90 95 97 100 102 100
125 117 108 106 101 96 95 92 89 87 84 81 83 83 82 85 88 89 87 85 82 82 83 85 85 83 81 82 86 86 84 81 77 74 69 73 81 91 98 97 99 99 95
118 119 116 112 108 103 100 98 95 91 87 84 86 88 87 87 88 89 90 87 84 84 85 85 83 80 77 79 84 82 81 79 75 69 66 71 79 88 97 100 98 98 97
122 123 122 117 115 111 108 103 100 96 92 89 90 90 90 89 90 90 89 87 85 84 85 83 81 79 78 77 79 80 81 76 72 66 64 68 79 87 94 100 101 99 101
131 129 127 120 118 117 113 108 104 102 96 94 93 92 91 89 89 89 87 88 88 86 84 81 79 77 75 77 79 79 77 72 70 65 63 65 84 92 95 96 99 101 99
138 133 127 122 120 120 118 113 109 106 100 97 98 96 93 92 92 90 89 89 88 86 83 79 74 73 74 78 80 77 73 70 68 69 64 70 87 92 96 97 98 98 92
132 128 125 127 123 121 120 117 115 112 108 105 105 101 99 97 96 92 89 90 87 84 81 77 72 72 73 75 78 78 74 67 62 64 70 74 91 90 92 95 95 91 88
129 135 136 132 127 123 121 119 118 119 116 113 113 109 101 96 94 92 88 88 87 84 81 76 73 72 72 74 78 76 71 64 60 59 63 78 87 88 88 89 91 88 86
140 148 146 142 139 136 129 123 117 116 118 118 118 118 107 91 86 88 84 87 86 85 80 72 70 73 73 76 80 75 69 63 61 59 69 83 86 84 82 82 83 83 82
161 165 160 160 158 151 135 125 115 110 113 117 119 117 111 101 92 90 81 75 79 78 73 66 63 66 70 75 77 74 69 65 63 60 75 85 85 82 81 79 78 80 79
164 157 162 169 163 155 134 132 119 113 111 116 122 118 114 98 85 77 68 63 59 59 55 50 53 61 68 78 80 77 73 69 66 62 76 87 84 81 81 78 75 78 79
139 144 160 165 153 157 143 136 133 122 116 126 133 126 117 102 85 81 72 64 58 56 54 53 60 65 70 76 85 81 77 77 72 67 77 87 84 83 82 81 78 76 77
122 134 150 159 152 152 140 142 132 128 133 136 133 133 125 117 112 103 96 81 68 67 67 62 66 69 72 74 86 88 81 82 79 75 78 85 84 81 81 83 83 80 77
123 129 138 134 144 140 138 139 137 133 125 120 125 134 131 127 120 108 89 80 68 76 81 83 84 86 82 80 76 84 89 93 87 84 81 84 87 87 85 84 84 83 80
136 118 125 131 123 125 133 140 130 124 112 100 107 127 124 126 124 114 100 77 67 77 83 82 79 84 84 79 79 85 90 95 97 90 87 86 89 90 88 86 81 81 83
130 115 119 123 115 109 110 115 115 115 106 100 102 113 118 120 122 118 107 93 90 85 84 86 85 86 75 73 73 75 82 93 103 105 101 93 90 85 87 89 86 79 78
136 128 111 108 116 113 108 103 98 94 96 97 102 103 111 116 116 113 100 83 89 78 67 96 88 103 101 88 88 80 78 96 101 113 108 108 106 98 90 87 83 79 77
123 121 116 114 122 122 106 79 74 73 72 81 92 101 109 112 112 106 90 78 85 79 61 72 83 78 102 119 102 70 38 54 71 83 104 109 119 113 103 89 76 70 74
104 108 115 114 108 112 109 114 112 106 82 60 78 94 110 116 113 105 95 84 86 90 83 78 92 74 56 82 84 48 20 28 33 31 52 70 72 106 109 103 98 86 78
140 134 123 132 130 131 147 156 153 152 173 170 89 63 87 109 121 121 113 116 111 96 72 64 84 92 64 71 111 100 38 7 360 13 37 68 52 67 78 114 102 112 107
150 160 156 156 149 146 133 105 84 65 41 37 29 32 45 98 111 116 122 120 124 122 115 87 99 121 119 49 85 125 130 202 298 341 354 24 32 63 23 145 119 131 137
177 171 161 160 154 149 136 128 136 139 154 222 226 227 344 92 108 120 126 127 133 133 125 116 94 113 130 125 40 57 137 153 149 296 331 342 354 2 279 236 167 157 149
172 163 155 147 151 145 142 145 147 141 165 159 94 62 18 4 75 119 127 125 137 142 142 118 99 101 115 128 139 120 82 70 102 141 251 316 338 322 311 285 173 169 182
142 130 129 126 119 138 137 138 148 152 149 133 128 122 348 346 344 63 119 116 124 133 136 133 138 126 125 121 115 115 133 134 158 145 179 234 288 304 328 333 203 188 201
Height
1523 1522 1521 1520 1519 1518 1517 1516 1516 1515 1514 1513 1513 1512 1511 1511 1511 1511 1511 1511 1511 1510 1509 1510 1511 1512 1512 1512 1513 1513 1513 1514 1513 1513 1514 1514 1515 1515 1515 1516 1516 1517 1517
1523 1523 1522 1521 1520 1519 1518 1517 1517 1516 1515 1515 1514 1513 1511 1511 1512 1512 1513 1513 1512 1511 1510 1510 1512 1513 1513 1513 1514 1514 1514 1514 1514 1514 1515 1515 1516 1516 1516 1516 1516 1517 1517
1524 1523 1523 1522 1521 1520 1519 1519 1518 1517 1517 1516 1515 1514 1513 1512 1513 1513 1514 1514 1513 1512 1511 1512 1513 1514 1514 1515 1515 1515 1515 1515 1515 1515 1516 1516 1516 1516 1516 1517 1517 1517 1517
1525 1524 1524 1523 1522 1521 1520 1520 1519 1519 1518 1518 1517 1516 1515 1515 1514 1515 1515 1515 1515 1515 1514 1515 1515 1515 1516 1516 1516 1516 1516 1516 1516 1516 1516 1516 1517 1517 1517 1517 1517 1517 1518
1526 1525 1525 1524 1523 1522 1522 1521 1521 1520 1520 1519 1518 1518 1517 1517 1517 1517 1517 1517 1517 1517 1516 1517 1517 1517 1517 1517 1517 1517 1517 1517 1517 1517 1517 1517 1517 1517 1517 1517 1517 1517 1517
1527 1526 1526 1525 1524 1524 1523 1523 1522 1521 1521 1521 1520 1519 1519 1519 1519 1519 1519 1519 1518 1518 1518 1518 1518 1518 1518 1518 1518 1518 1518 1518 1518 1518 1518 1517 1517 1518 1518 1518 1518 1517 1518
1528 1527 1527 1527 1526 1525 1525 1524 1523 1523 1523 1522 1522 1521 1521 1521 1520 1520 1520 1520 1520 1520 1520 1520 1520 1520 1520 1519 1519 1519 1519 1519 1518 1518 1518 1518 1518 1518 1518 1518 1518 1518 1518
1529 1529 1528 1528 1527 1527 1526 1525 1525 1524 1524 1524 1523 1523 1523 1522 1522 1522 1522 1522 1522 1522 1522 1521 1521 1521 1521 1520 1520 1520 1519 1519 1519 1518 1518 1518 1518 1519 1518 1518 1518 1518 1518
1530 1530 1530 1529 1529 1528 1528 1527 1527 1526 1526 1525 1525 1525 1524 1524 1524 1524 1524 1524 1524 1524 1523 1523 1523 1522 1522 1522 1521 1521 1520 1520 1519 1519 1519 1519 1519 1519 1519 1519 1519 1519 1518
1532 1531 1531 1531 1530 1530 1529 1529 1528 1528 1527 1527 1527 1526 1526 1526 1526 1526 1525 1525 1525 1525 1525 1525 1524 1524 1523 1523 1522 1522 1521 1521 1520 1520 1520 1520 1520 1519 1519 1519 1519 1519 1518
1533 1532 1532 1532 1532 1531 1531 1530 1530 1529 1529 1528 1528 1528 1528 1527 1527 1527 1527 1527 1527 1527 1527 1526 1526 1525 1525 1524 1524 1523 1522 1522 1521 1520 1520 1520 1520 1520 1520 1520 1519 1519 1518
1533 1533 1533 1533 1533 1532 1532 1532 1531 1531 1530 1530 1530 1529 1529 1529 1529 1529 1528 1528 1528 1528 1528 1528 1527 1527 1526 1526 1525 1524 1523 1522 1522 1521 1521 1522 1522 1521 1521 1521 1520 1519 1519
1533 1534 1534 1534 1534 1534 1533 1533 1533 1532 1532 1531 1531 1531 1530 1530 1530 1530 1530 1530 1530 1530 1529 1529 1529 1528 1527 1527 1526 1525 1524 1523 1523 1523 1523 1523 1523 1522 1522 1521 1521 1520 1520
1534 1534 1534 1534 1534 1534 1534 1534 1534 1533 1533 1533 1533 1532 1532 1532 1531 1531 1531 1531 1531 1531 1530 1530 1530 1529 1529 1528 1527 1527 1526 1525 1525 1524 1524 1524 1524 1523 1523 1522 1522 1521 1521
1534 1534 1534 1535 1535 1535 1535 1535 1535 1535 1534 1534 1534 1533 1533 1533 1532 1532 1532 1532 1532 1532 1531 1531 1531 1530 1530 1529 1529 1528 1527 1526 1526 1526 1525 1525 1525 1524 1524 1523 1523 1522 1521
1533 1534 1534 1535 1535 1536 1536 1535 1536 1535 1535 1535 1535 1534 1534 1534 1533 1533 1533 1533 1533 1532 1532 1532 1532 1531 1531 1531 1530 1529 1529 1528 1528 1527 1527 1526 1526 1525 1525 1524 1523 1523 1522
1533 1533 1534 1534 1535 1536 1536 1536 1536 1536 1536 1535 1535 1535 1535 1535 1534 1534 1533 1533 1533 1533 1533 1533 1532 1532 1532 1532 1531 1531 1530 1530 1529 1529 1528 1528 1527 1527 1526 1525 1524 1523 1523
1533 1533 1534 1534 1535 1535 1536 1536 1536 1536 1536 1536 1536 1536 1535 1535 1535 1534 1534 1534 1534 1533 1533 1533 1533 1533 1532 1532 1532 1531 1531 1531 1530 1530 1530 1529 1528 1528 1527 1526 1525 1525 1524
1532 1532 1533 1534 1534 1535 1535 1536 1536 1536 1536 1536 1536 1536 1536 1535 1535 1535 1534 1534 1534 1534 1533 1533 1533 1533 1533 1533 1532 1532 1532 1532 1531 1531 1530 1530 1530 1529 1528 1528 1527 1526 1525
1532 1532 1532 1533 1534 1534 1535 1535 1536 1536 1536 1536 1536 1536 1535 1535 1535 1535 1534 1534 1534 1533 1533 1533 1533 1533 1533 1533 1533 1533 1533 1533 1532 1532 1531 1531 1531 1530 1529 1529 1528 1527 1526
1531 1531 1532 1532 1533 1533 1534 1534 1535 1535 1535 1535 1535 1535 1535 1535 1535 1534 1534 1533 1533 1533 1533 1533 1533 1532 1532 1532 1532 1532 1533 1533 1533 1532 1532 1531 1531 1530 1530 1529 1528 1527 1527
1529 1530 1531 1531 1532 1532 1533 1533 1534 1534 1534 1535 1535 1534 1534 1534 1534 1534 1533 1533 1532 1532 1532 1532 1532 1532 1532 1532 1532 1532 1532 1534 1533 1533 1532 1531 1531 1531 1530 1529 1528 1528 1527
1528 1529 1529 1530 1531 1531 1532 1532 1533 1533 1533 1533 1533 1533 1533 1533 1533 1533 1533 1532 1532 1531 1531 1531 1531 1531 1531 1531 1531 1532 1532 1532 1532 1532 1532 1531 1531 1530 1530 1529 1528 1528 1527
1526 1527 1528 1528 1529 1530 1531 1531 1531 1531 1531 1531 1532 1532 1532 1532 1532 1532 1532 1531 1531 1530 1530 1530 1530 1530 1530 1530 1531 1531 1532 1531 1531 1531 1532 1531 1531 1530 1529 1529 1528 1527 1526
1524 1525 1526 1527 1528 1529 1529 1529 1530 1530 1530 1530 1530 1530 1531 1531 1531 1530 1530 1530 1530 1529 1529 1529 1529 1529 1529 1529 1529 1530 1530 1530 1530 1530 1530 1530 1530 1529 1529 1528 1527 1526 1526
1523 1524 1525 1525 1526 1527 1527 1528 1528 1528 1528 1528 1528 1528 1528 1528 1528 1529 1528 1528 1528 1528 1528 1528 1528 1528 1528 1529 1529 1529 1529 1529 1529 1529 1529 1528 1528 1528 1528 1527 1527 1526 1525